User: anonymous   Login
Location: Unspecified
(0.0000°N, 0.0000°E)
Time: 08:35:28
(UTC+00:00)
Language:

TABLETSAT AURORA - Orbit

View from above orbital plane
View from above orbital plane
View from above satellite
View from above satellite

Ground track
Ground track

The orbit data is extracted from the following two-line orbital elements,

1 40017U 14033H   17293.61346642 +.00000536 +00000-0 +57274-4 0  9990
2 40017 097.9433 215.2934 0022165 273.4365 086.4319 14.92908119181679
Epoch (UTC): 20 October 2017 14:43:23
Eccentricity: 0.0022165
inclination: 97.9433°
perigee height: 573 km
apogee height: 604 km
right ascension of ascending node: 215.2934°
argument of perigee: 273.4365°
revolutions per day: 14.92908119
mean anomaly at epoch: 86.4319°
orbit number at epoch: 18167

The dashed part of the orbit path shows where the satellite is in the earth's shadow,  

DLR